Home   Weather   Samford   Past weeks

Flag for Australia Past Weather in Samford, Queensland, Australia — Yesterday and Last 2 Weeks

Now
59 °F

Clear.


Feels Like: 56 °F
Forecast: 55 / 78 °F
Wind: 15 mph from Southwest

Location: Brisbane Airport M. O

Current Time: Sep 26, 2016 at 5:18:52 AM

Latest Report: Sep 26, 2016 at 4:30 AM


Visibility: 10 mi

Pressure: 29.83 "Hg

Humidity: 63%

Dew Point: 46 °F

Location of SamfordLocation

Past Weather in Samford — Graph

°F

Samford Temperature Yesterday

Maximum temperature yesterday: 82 °F (at 1:00 PM)
Minimum temperature yesterday: 57 °F (at 5:00 AM)
Average temperature yesterday: 69 °F

High & Low Weather Summary for the Past Weeks

 TemperatureHumidityPressure
High82 °F (Sep 25, 1:00 PM)100% (Sep 12, 5:30 AM)30.21 "Hg (Sep 12, 5:30 AM)
Low54 °F (Sep 11, 6:00 AM)29% (Sep 23, 2:00 PM)29.68 "Hg (Sep 25, 1:00 PM)
Average67 °F71%29.97 "Hg
* Reported Sep 11 4:00 AM — Sep 26 4:00 AM, Samford, Weather by CustomWeather, © 2016

Note: Actual official high and low records may vary slightly from our data, if they occured in-between our weather recording intervals... More about our weather records

Advertising

Samford Weather History for the Previous 24 Hours

Scroll right to see more
 ConditionsComfort  
Time TempWeatherWind HumidityBarometerVisibility
4:00 AM
Mon, Sep 26
63 °FClear.15 mph56%29.83 "Hg10 mi
3:30 AM63 °FClear.14 mph52%29.83 "Hg10 mi
3:00 AM63 °FClear.16 mph56%29.83 "Hg10 mi
2:00 AM63 °FClear.15 mph56%29.83 "Hg10 mi
1:00 AM57 °FClear.10 mph67%29.83 "Hg10 mi
12:00 AM63 °FClear.10 mph52%29.86 "Hg10 mi
11:30 PM
Sun, Sep 25
64 °FClear.12 mph49%29.83 "Hg10 mi
11:00 PM66 °FClear.9 mph46%29.83 "Hg10 mi
10:30 PM68 °FClear.13 mph43%29.83 "Hg10 mi
10:00 PM66 °FClear.7 mph49%29.83 "Hg10 mi
9:30 PM70 °FClear.13 mph40%29.83 "Hg10 mi
9:00 PM70 °FClear.16 mph40%29.83 "Hg10 mi
8:00 PM73 °FClear.15 mph33%29.80 "Hg10 mi
7:30 PM73 °FClear.10 mph33%29.80 "Hg10 mi
7:00 PM73 °FClear.13 mph36%29.77 "Hg10 mi
6:30 PM75 °FClear.16 mph36%29.74 "Hg10 mi
6:00 PM77 °FClear.14 mph36%29.74 "Hg10 mi
5:00 PM79 °FSunny.22 mph37%29.71 "Hg10 mi
4:00 PM81 °FSunny.18 mph34%29.68 "Hg10 mi
3:05 PM79 °FSprinkles. Clear.22 mph39%29.68 "HgN/A
2:30 PM81 °FScattered showers. Clear.15 mph37%29.68 "HgN/A
2:00 PM81 °FSunny.17 mph37%29.68 "Hg10 mi
1:30 PM81 °FSunny.18 mph34%29.68 "Hg10 mi
1:00 PM82 °FPassing clouds.13 mph32%29.68 "HgN/A
12:00 PM77 °FSunny.9 mph51%29.71 "Hg10 mi
11:30 AM75 °FSunny.9 mph57%29.74 "Hg10 mi
11:00 AM73 °FSunny.6 mph61%29.74 "Hg10 mi
10:30 AM73 °FScattered clouds.7 mph61%29.77 "HgN/A
10:00 AM70 °FSunny.7 mph64%29.77 "Hg10 mi
9:30 AM68 °FSunny.5 mph69%29.80 "Hg10 mi
9:00 AM66 °FScattered showers. Clear.6 mph68%29.80 "HgN/A
8:30 AM64 °FScattered showers. Broken clouds.2 mph78%29.80 "HgN/A
8:00 AM63 °FDrizzle. Broken clouds.2 mph77%29.83 "HgN/A
7:30 AM63 °FScattered showers. Clear.No wind77%29.83 "HgN/A
7:00 AM61 °FSunny.5 mph83%29.83 "Hg10 mi
6:30 AM61 °FSunny.7 mph77%29.80 "Hg10 mi
6:00 AM59 °FSunny.8 mph82%29.80 "Hg10 mi
5:30 AM57 °FClear.6 mph88%29.80 "Hg10 mi
5:00 AM57 °FClear.7 mph88%29.80 "Hg10 mi
Weather by CustomWeather, © 2016

See weather overviewHow to use our weather pages